Regional Weather Roundup
Issued by NWS

Home | Current Version | Previous Version | Text Only | Print | Product List | Glossary On
Versions: 1 2 3 4 5 6 7 8 9 10 11 12 13 14 15 16 17 18 19 20 21 22 23 24 25 26 27 28 29 30 31 32 33 34 35 36 37 38 39 40 41 42 43 44 45 46 47 48 49 50
000
ASUS43 KTOP 310559
RWRKS

WEATHER ROUNDUP FOR KANSAS
NATIONAL WEATHER SERVICE GOODLAND KS
100 AM CDT SUN AUG 31 2014

NOTE:  "FAIR" INDICATES FEW OR NO CLOUDS BELOW 12,000 FEET WITH NO
SIGNIFICANT WEATHER AND/OR OBSTRUCTIONS TO VISIBILITY.

KSZ001>006-013>018-027>032-041>047-310700-
NORTHWEST KANSAS

CITY           SKY/WX    TMP DP  RH WIND       PRES   REMARKS
GOODLAND       MOCLDY    74  56  53 SW17G23   29.94R
6HR MIN TEMP:  70; 6HR MAX TEMP:  87; 6HR PCP: TRACE;

HAYS           FAIR      75  55  50 S15       29.86F
HILL CITY      FAIR      74  56  53 S8        29.86R
6HR MIN TEMP:  74; 6HR MAX TEMP:  89;

RUSSELL        FAIR      74  60  61 S14       29.85F
6HR MIN TEMP:  73; 6HR MAX TEMP:  87;

$$

KSZ061>065-074>080-084>089-310700-
SOUTHWEST KANSAS

CITY           SKY/WX    TMP DP  RH WIND       PRES   REMARKS
DODGE CITY     FAIR      78  54  43 S9        29.87F
6HR MIN TEMP:  74; 6HR MAX TEMP:  87;

ELKHART          N/A     73  54  51 S15         N/A
GARDEN CITY    FAIR      72  58  61 S12       29.89R
6HR MIN TEMP:  72; 6HR MAX TEMP:  86;

GREAT BEND     FAIR      73  55  53 S13       29.88S
LIBERAL        FAIR      75  55  50 SE9       29.93S
$$

KSZ066>073-081>083-090>101-310700-
SOUTHEAST KANSAS

CITY           SKY/WX    TMP DP  RH WIND       PRES   REMARKS
CHANUTE        FAIR      75  69  81 S8        29.91S
6HR MIN TEMP:  72; 6HR MAX TEMP:  92;

COFFEYVILLE    FAIR      73  70  90 S7        29.91S
6HR MIN TEMP:  73; 6HR MAX TEMP:  90;

HUTCHINSON     FAIR      70  60  70 SE6       29.89S
6HR MIN TEMP:  68; 6HR MAX TEMP:  89;

MEDICINE LODGE   N/A     76  61  59 SE5       29.89R
NEWTON         FAIR      72  57  60 SE9       29.93S
PARSONS        FAIR      75  69  81 S3        29.92S
6HR MIN TEMP:  74; 6HR MAX TEMP:  91;

WICHITA INTL   FAIR      75  65  70 S12       29.89F
6HR MIN TEMP:  73; 6HR MAX TEMP:  90;

WICHITA JABRA  FAIR      74  65  73 S9        29.89F
6HR MIN TEMP:  71; 6HR MAX TEMP:  89;

WINFIELD       FAIR      74  70  87 SE9       29.91F
6HR MIN TEMP:  74; 6HR MAX TEMP:  88;

$$

KSZ007>012-019>026-033>040-048>060-102>105-310700-
NORTHEAST KANSAS

CITY           SKY/WX    TMP DP  RH WIND       PRES   REMARKS
EMPORIA        FAIR      69  61  75 S8        29.89F
6HR MIN TEMP:  69; 6HR MAX TEMP:  87;

LAWRENCE       FAIR      70  65  84 SE6       29.89S
6HR MIN TEMP:  69; 6HR MAX TEMP:  88;

MANHATTAN      FAIR      73  61  65 CALM      29.86F
6HR MIN TEMP:  72; 6HR MAX TEMP:  90;

OLATHE IND     FAIR      73  66  78 SE7       29.91S
6HR MIN TEMP:  72; 6HR MAX TEMP:  85;

OLATHE EXE     FAIR      72  66  81 SE6       29.90S
6HR MIN TEMP:  72; 6HR MAX TEMP:  86;

SALINA         FAIR      71  59  65 S5        29.86F
6HR MIN TEMP:  71; 6HR MAX TEMP:  91;

TOPEKA BILLARD FAIR      74  67  78 E5        29.88S
6HR MIN TEMP:  74; 6HR MAX TEMP:  88;

TOPEKA FORBES  FAIR      71  64  78 SE7       29.89S
6HR MIN TEMP:  70; 6HR MAX TEMP:  87;

$$



USA.gov is the U.S. government's official web portal to all federal, state and local government web resources and services.